[[{"header":{"parameterUnit":"m.s-1","parameterCategory":1,"la1":30.2991,"la2":30.254,"lo1":-89.0895,"lo2":-89.0444,"dy":0.0017,"dx":0.0017,"nx":28,"ny":28,"refTime":"2024-06-22T03:00:00:Z","depth":0,"parameterNumber":2,"parameterNumberName":"U-component_of_WINDS"},"data":[0,0,0,0,0,0,0,0,0,0,0,0,0,0,0,0,0,0,0,0,0,0,0,0,0,0,0,0,0,0,0,0,0,0,0,0,0,0,0,0,0,0,0,0,0,0,0,0,0,0,0,0,0,0,0,0,0,0,-0.5167,-0.5167,0,-0.5132,-0.5132,-0.5132,-0.5078,-0.5077,-0.5076,-0.5075,-0.5041,-0.5041,-0.5041,0,0,0,0,0,0,0,0,0,0,0,0,0,-0.519,-0.519,-0.5167,-0.5167,-0.5166,-0.5132,-0.5132,-0.5131,-0.5078,-0.5077,-0.5076,-0.5075,-0.5041,-0.5041,-0.5041,0,0,0,0,0,0,0,0,0,0,0,0,0,-0.517,-0.519,-0.5167,-0.5136,-0.5132,-0.5133,-0.5132,-0.5131,-0.5078,-0.5077,-0.5076,-0.5074,-0.5041,-0.5041,-0.5041,-0.507,0,0,-0.5041,-0.5041,0,0,0,0,0,0,0,0,-0.5171,-0.5169,-0.5141,-0.5138,-0.5134,-0.5108,-0.5127,-0.5111,-0.5079,-0.5099,-0.5075,-0.5074,-0.5065,-0.5063,-0.5059,-0.5068,-0.5067,-0.5041,-0.5041,-0.5041,-0.5041,0,0,0,0,0,0,0,-0.5173,-0.517,-0.5153,-0.514,-0.5136,-0.5124,-0.512,-0.5124,-0.509,-0.5097,-0.5093,-0.509,-0.5063,-0.5059,-0.5058,-0.5066,-0.5041,-0.5041,-0.5041,-0.5041,-0.5098,-0.51,0,0,0,0,0,0,-0.5178,-0.5172,-0.5154,-0.5152,-0.5149,-0.5125,-0.512,-0.5118,-0.509,-0.5085,-0.5091,-0.5087,-0.506,-0.5058,-0.5057,-0.5089,-0.5041,-0.5041,-0.5041,-0.5097,-0.5098,-0.51,0,0,0,0,0,0,-0.5179,-0.5177,-0.5156,-0.5161,-0.5157,-0.5126,-0.5124,-0.5118,-0.5115,-0.5085,-0.5079,-0.5094,-0.5059,-0.5057,-0.5067,-0.5087,-0.5041,-0.5041,-0.5095,-0.5097,-0.5099,-0.5154,0,0,0,0,0,0,-0.518,-0.5178,-0.5188,-0.5162,-0.5157,-0.5166,-0.5125,-0.5118,-0.5115,-0.511,-0.5086,-0.5081,-0.5058,-0.5067,-0.5067,-0.5086,-0.5041,-0.5093,-0.5096,-0.5099,-0.5151,-0.5158,-0.5165,0,0,0,0,0,-0.5181,-0.5205,-0.5189,-0.5187,-0.5169,-0.5168,-0.5165,-0.5137,-0.5116,-0.5127,-0.5108,-0.5082,-0.5085,-0.5069,-0.5068,-0.5088,-0.5091,-0.5095,-0.5098,-0.5147,-0.5157,-0.5165,0,0,0,0,0,0,-0.5235,-0.5201,-0.5182,-0.5198,-0.5186,-0.5159,-0.5171,-0.5148,-0.5142,-0.5137,-0.5103,-0.5098,-0.5113,-0.5101,-0.5084,-0.5115,-0.5084,-0.5088,-0.5122,-0.5131,-0.5138,-0.514,-0.5041,0,0,0,0,0,-0.5248,-0.5249,-0.522,-0.5237,-0.5232,-0.5203,-0.5201,-0.518,-0.5167,-0.5161,-0.5143,-0.5131,-0.513,-0.5129,-0.5126,-0.5149,-0.5143,-0.5162,-0.5169,-0.5175,-0.5179,-0.5191,-0.5199,-0.5111,-0.5111,-0.5111,0,0,-0.5277,-0.5258,-0.5261,-0.5247,-0.5235,-0.5238,-0.5199,-0.5203,-0.5205,-0.5162,-0.5171,-0.5157,-0.5142,-0.5159,-0.5165,-0.5149,-0.5202,-0.5179,-0.5184,-0.5185,-0.5195,-0.5203,-0.5211,-0.5114,-0.5113,-0.5113,0,0,-0.533,-0.5316,-0.5329,-0.5318,-0.53,-0.5281,-0.5284,-0.526,-0.5249,-0.5258,-0.5226,-0.5228,-0.5226,-0.5216,-0.5211,-0.5262,-0.5238,-0.5262,-0.5299,-0.5312,-0.5319,-0.5325,-0.5344,-0.5351,-0.5266,-0.5266,-0.5266,0,-0.5368,-0.537,-0.5339,-0.5345,-0.5341,-0.5302,-0.5315,-0.5306,-0.5289,-0.5287,-0.5269,-0.5266,-0.5253,-0.5268,-0.528,-0.5277,-0.5281,-0.5265,-0.532,-0.5326,-0.5331,-0.5349,-0.5356,-0.5269,-0.5268,-0.5268,-0.5268,0,-0.5417,-0.542,-0.5432,-0.5417,-0.5413,-0.5424,-0.5395,-0.5395,-0.5375,-0.5358,-0.5368,-0.5351,-0.5344,-0.5346,-0.5326,-0.5358,-0.5349,-0.5326,-0.5295,-0.5343,-0.5359,-0.5366,-0.5273,-0.5272,-0.5271,-0.527,0,0,-0.5504,-0.5471,-0.5476,-0.5469,-0.5447,-0.5448,-0.5457,-0.545,-0.5452,-0.5442,-0.5449,-0.5448,-0.5427,-0.5422,-0.5401,-0.5412,-0.5455,-0.5388,-0.5387,-0.5402,-0.549,-0.5508,-0.5516,-0.5438,-0.544,-0.544,-0.5492,0,-0.5553,-0.5566,-0.5539,-0.5558,-0.5561,-0.5524,-0.5532,-0.552,-0.5504,-0.5505,-0.5487,-0.5488,-0.546,-0.5456,-0.5465,-0.5448,-0.5472,-0.5443,-0.5446,-0.5446,-0.5452,-0.5525,-0.5543,-0.5593,-0.5498,-0.5499,-0.55,0,-0.5613,-0.5605,-0.5625,-0.5603,-0.5603,-0.5611,-0.5603,-0.5603,-0.5589,-0.5577,-0.5571,-0.5547,-0.5555,-0.5525,-0.5536,-0.5517,-0.5517,-0.5509,-0.551,-0.551,-0.5477,-0.5528,-0.5608,-0.5615,-0.5509,-0.5508,-0.5508,0,-0.5675,-0.567,-0.5681,-0.5676,-0.565,-0.5657,-0.5647,-0.5631,-0.5629,-0.5622,-0.5621,-0.5615,-0.5613,-0.5609,-0.5584,-0.5564,-0.5599,-0.5567,-0.559,-0.5591,-0.56,-0.56,-0.5682,-0.5598,-0.5598,-0.5598,-0.5598,0,-0.5734,-0.5748,-0.5709,-0.5717,-0.5731,-0.57,-0.5716,-0.5702,-0.5689,-0.5694,-0.5662,-0.5667,-0.5633,-0.5635,-0.5616,-0.5629,-0.5628,-0.5619,-0.5614,-0.5622,-0.5623,-0.5622,-0.5618,-0.56,-0.5599,-0.5599,-0.5599,0,-0.5806,-0.5781,-0.5791,-0.5766,-0.576,-0.5772,-0.5751,-0.5757,-0.574,-0.5746,-0.5746,-0.5718,-0.5719,-0.5693,-0.5689,-0.5676,-0.5698,-0.5686,-0.5703,-0.5699,-0.5725,-0.5723,-0.581,-0.582,-0.5729,-0.573,-0.5731,0,-0.5846,-0.5856,-0.5832,-0.5832,-0.5823,-0.5825,-0.5822,-0.5792,-0.5791,-0.5777,-0.5785,-0.5783,-0.578,-0.5783,-0.5763,-0.576,-0.5748,-0.5779,-0.5747,-0.5756,-0.575,-0.575,-0.5751,-0.5786,-0.5787,-0.5788,-0.5788,0,-0.5919,-0.5906,-0.5904,-0.5898,-0.5896,-0.5889,-0.5881,-0.5883,-0.5851,-0.5852,-0.5852,-0.5849,-0.5845,-0.5843,-0.5836,-0.5827,-0.5803,-0.5798,-0.5804,-0.5813,-0.5823,-0.5819,-0.5722,-0.5797,-0.5796,-0.5795,-0.5795,-0.5794,-0.5977,-0.5985,-0.5969,-0.5968,-0.5958,-0.5952,-0.5956,-0.5939,-0.5939,-0.5932,-0.5915,-0.5918,-0.5905,-0.5893,-0.5886,-0.5888,-0.5873,-0.5881,-0.5883,-0.5886,-0.5891,-0.5822,-0.5887,-0.5887,-0.5886,-0.5886,-0.5886,0,-0.605,-0.6038,-0.6037,-0.6027,-0.6026,-0.6003,-0.5992,-0.5994,-0.5997,-0.5986,-0.5984,-0.5985,-0.5983,-0.5964,-0.596,-0.5967,-0.5956,-0.5967,-0.5967,-0.5965,-0.5904,-0.59,-0.5976,-0.5976,-0.5976,-0.5976,-0.5976,-0.5976,-0.6088,-0.61,-0.6085,-0.6093,-0.6081,-0.6083,-0.608,-0.6074,-0.6065,-0.6067,-0.6066,-0.6053,-0.6039,-0.6034,-0.6033,-0.6027,-0.6028,-0.6043,-0.6034,-0.5978,-0.5969,-0.5961,-0.5957,-0.6043,-0.6043,-0.6094,-0.6095,-0.6095]},{"header":{"parameterUnit":"m.s-1","parameterCategory":1,"la1":30.2991,"la2":30.254,"lo1":-89.0895,"lo2":-89.0444,"dy":0.0017,"dx":0.0017,"nx":28,"ny":28,"refTime":"2024-06-22T03:00:00:Z","depth":0,"parameterNumber":3,"parameterNumberName":"V-component_of_WINDS"},"data":[0,0,0,0,0,0,0,0,0,0,0,0,0,0,0,0,0,0,0,0,0,0,0,0,0,0,0,0,0,0,0,0,0,0,0,0,0,0,0,0,0,0,0,0,0,0,0,0,0,0,0,0,0,0,0,0,0,0,3.8506,3.8506,0,3.8474,3.8473,3.8473,3.8444,3.8444,3.8443,3.8443,3.8407,3.8406,3.8405,0,0,0,0,0,0,0,0,0,0,0,0,0,3.8541,3.8541,3.8506,3.8506,3.8505,3.8474,3.8473,3.8473,3.8444,3.8444,3.8443,3.8443,3.8407,3.8406,3.8405,0,0,0,0,0,0,0,0,0,0,0,0,0,3.8519,3.8541,3.8506,3.8487,3.8485,3.8474,3.8473,3.8473,3.8444,3.8444,3.8443,3.8443,3.8407,3.8406,3.8405,3.8409,0,0,3.8402,3.8402,0,0,0,0,0,0,0,0,3.852,3.8518,3.849,3.8489,3.8486,3.8463,3.8472,3.8451,3.8444,3.846,3.8443,3.8442,3.8425,3.8423,3.8418,3.8407,3.8406,3.8402,3.8402,3.8401,3.8401,0,0,0,0,0,0,0,3.8522,3.8519,3.8493,3.849,3.8488,3.848,3.8476,3.8468,3.8446,3.8458,3.8456,3.8453,3.8424,3.8419,3.8417,3.8405,3.8402,3.8401,3.8401,3.84,3.8398,3.8398,0,0,0,0,0,0,3.8527,3.8521,3.8494,3.8492,3.8503,3.848,3.8475,3.8471,3.8446,3.8441,3.8453,3.8452,3.8421,3.8418,3.8415,3.8419,3.8401,3.84,3.84,3.8397,3.8398,3.8399,0,0,0,0,0,0,3.8528,3.8525,3.8496,3.8506,3.8502,3.848,3.8474,3.847,3.8465,3.8442,3.8438,3.8452,3.842,3.8417,3.8411,3.8417,3.84,3.8399,3.8397,3.8398,3.8398,3.8426,0,0,0,0,0,0,3.8529,3.8525,3.8527,3.8506,3.8501,3.8493,3.8475,3.847,3.8464,3.8461,3.844,3.8436,3.842,3.8413,3.8411,3.8416,3.8398,3.8396,3.8397,3.8398,3.8425,3.8428,3.8431,0,0,0,0,0,3.853,3.8535,3.8527,3.8524,3.8503,3.8493,3.849,3.8473,3.8464,3.8465,3.8451,3.8436,3.8418,3.8413,3.841,3.8415,3.8396,3.8397,3.8398,3.8423,3.8427,3.8431,0,0,0,0,0,0,3.8555,3.8532,3.8523,3.8521,3.851,3.8488,3.8489,3.8477,3.8467,3.8465,3.8442,3.8438,3.8435,3.8424,3.842,3.8418,3.8405,3.8405,3.8425,3.8428,3.8431,3.8434,3.8397,0,0,0,0,0,3.8561,3.8556,3.8535,3.8536,3.8531,3.8511,3.8506,3.8494,3.8481,3.8475,3.846,3.8447,3.8438,3.8433,3.8423,3.8423,3.8418,3.8425,3.8428,3.8431,3.8431,3.8431,3.8434,3.8403,3.8403,3.8403,0,0,3.8572,3.8558,3.8556,3.8541,3.853,3.8525,3.8507,3.8502,3.8498,3.8474,3.8469,3.8457,3.8441,3.8439,3.8437,3.843,3.8439,3.8432,3.8435,3.8434,3.8433,3.8436,3.8439,3.8403,3.8403,3.8403,0,0,3.8589,3.8578,3.8578,3.8569,3.8554,3.8541,3.8541,3.8522,3.8515,3.8509,3.8492,3.8486,3.8471,3.8461,3.8454,3.847,3.8456,3.8467,3.8482,3.8483,3.8485,3.8487,3.8493,3.8496,3.8468,3.8468,3.8468,0,3.8604,3.8596,3.8579,3.8576,3.857,3.855,3.8549,3.8541,3.8523,3.8519,3.8512,3.8494,3.8481,3.8477,3.8481,3.8476,3.8475,3.8469,3.8486,3.8488,3.849,3.8495,3.8498,3.847,3.8469,3.8469,3.8469,0,3.8616,3.8611,3.8612,3.8598,3.8592,3.859,3.8572,3.8568,3.8557,3.8545,3.854,3.8525,3.8513,3.8511,3.85,3.8506,3.8502,3.8491,3.8477,3.8495,3.85,3.8501,3.8472,3.8471,3.8471,3.847,0,0,3.8646,3.8624,3.8625,3.8618,3.8601,3.8597,3.8594,3.8584,3.8581,3.857,3.8567,3.8556,3.8547,3.8539,3.8526,3.8526,3.8541,3.8515,3.8515,3.8521,3.8547,3.8555,3.8558,3.8532,3.8532,3.8533,3.8548,0,3.866,3.8656,3.8641,3.8641,3.8636,3.8618,3.8616,3.8605,3.8595,3.8589,3.8577,3.857,3.8557,3.8553,3.8552,3.8539,3.8546,3.8538,3.8529,3.8529,3.8533,3.856,3.8568,3.8584,3.855,3.855,3.8551,0,3.8676,3.8668,3.8667,3.8652,3.865,3.8648,3.8638,3.8633,3.8621,3.8613,3.8606,3.8592,3.8588,3.8577,3.8571,3.8567,3.8562,3.8555,3.8556,3.8553,3.854,3.8558,3.8588,3.859,3.8553,3.8553,3.8553,0,3.8698,3.8687,3.8686,3.8681,3.8663,3.8663,3.8655,3.8643,3.8638,3.8629,3.8625,3.8616,3.861,3.8603,3.8588,3.8581,3.8585,3.8571,3.8578,3.8578,3.8578,3.8578,3.8608,3.8577,3.8577,3.8577,3.8577,0,3.8716,3.8716,3.8696,3.8695,3.8695,3.8679,3.8679,3.867,3.8659,3.8656,3.864,3.8637,3.8617,3.8612,3.8599,3.8597,3.8595,3.8588,3.8585,3.859,3.859,3.8586,3.8584,3.8577,3.8577,3.8577,3.8577,0,3.874,3.8727,3.8724,3.8708,3.8704,3.8705,3.8691,3.869,3.8679,3.8675,3.8673,3.8656,3.865,3.8634,3.8622,3.8614,3.8615,3.8609,3.862,3.8618,3.8625,3.8625,3.8652,3.8655,3.8622,3.8623,3.8623,0,3.8751,3.8752,3.8737,3.8734,3.8727,3.8723,3.8718,3.8703,3.8699,3.8686,3.8686,3.8679,3.8672,3.8662,3.8648,3.864,3.8633,3.8644,3.8632,3.8637,3.8633,3.8634,3.8634,3.8646,3.8646,3.8647,3.8647,0,3.8773,3.8767,3.8762,3.8755,3.875,3.8743,3.8736,3.8734,3.8717,3.8713,3.8707,3.8702,3.8692,3.8684,3.8674,3.8666,3.8653,3.8651,3.8652,3.8656,3.8662,3.8659,3.8626,3.865,3.865,3.865,3.8649,3.8649,3.8791,3.8791,3.8781,3.8776,3.8769,3.8763,3.8761,3.8751,3.8746,3.8737,3.8728,3.8723,3.8712,3.8698,3.869,3.8686,3.868,3.8681,3.8681,3.8682,3.8684,3.8664,3.8684,3.8684,3.8684,3.8684,3.8684,0,3.8813,3.8806,3.8801,3.8792,3.8788,3.8779,3.877,3.8767,3.8763,3.8755,3.8749,3.8743,3.8736,3.8723,3.8715,3.8714,3.8708,3.8713,3.8712,3.8711,3.869,3.869,3.8718,3.8718,3.8718,3.8718,3.8718,3.8718,3.8823,3.8822,3.8815,3.8811,3.8804,3.88,3.8796,3.879,3.8784,3.8777,3.8772,3.8764,3.8754,3.8746,3.874,3.8736,3.8734,3.874,3.8734,3.8715,3.8712,3.8709,3.8709,3.874,3.874,3.8755,3.8755,3.8755]}]]